Year,Month,Day,Hour,Minute,Value (Times are PST for temperature in C)
2006,03,23,00,00,9.10
2006,03,23,00,01,9.10
2006,03,23,00,02,9.10
2006,03,23,00,03,9.10
2006,03,23,00,04,9.10
2006,03,23,00,05,9.10
2006,03,23,00,06,9.20
2006,03,23,00,07,9.20
2006,03,23,00,08,9.20
2006,03,23,00,09,9.20
2006,03,23,00,10,9.20
2006,03,23,00,11,9.20
2006,03,23,00,12,9.20
2006,03,23,00,13,9.20
2006,03,23,00,14,9.20
2006,03,23,00,15,9.20
2006,03,23,00,16,9.20
2006,03,23,00,17,9.20
2006,03,23,00,18,9.20
2006,03,23,00,19,9.20
2006,03,23,00,20,9.20
2006,03,23,00,21,9.20
2006,03,23,00,22,9.20
2006,03,23,00,23,9.20
2006,03,23,00,24,9.20
2006,03,23,00,25,9.20
2006,03,23,00,26,9.20
2006,03,23,00,27,9.20
2006,03,23,00,28,9.20
2006,03,23,00,29,9.20
2006,03,23,00,30,9.20
2006,03,23,00,31,9.20
2006,03,23,00,32,9.20
2006,03,23,00,33,9.20
2006,03,23,00,34,9.20
2006,03,23,00,35,9.20
2006,03,23,00,36,9.20
2006,03,23,00,37,9.20
2006,03,23,00,38,9.20
2006,03,23,00,39,9.20
2006,03,23,00,40,9.20
2006,03,23,00,41,9.20
2006,03,23,00,42,9.20
2006,03,23,00,43,9.20
2006,03,23,00,44,9.20
2006,03,23,00,45,9.20
2006,03,23,00,46,9.20
2006,03,23,00,47,9.10
2006,03,23,00,48,9.10
2006,03,23,00,49,9.10
2006,03,23,00,50,9.10
2006,03,23,00,51,9.00
2006,03,23,00,52,9.00
2006,03,23,00,53,9.00
2006,03,23,00,54,9.00
2006,03,23,00,55,9.00
2006,03,23,00,56,9.10
2006,03,23,00,57,9.10
2006,03,23,00,58,9.20
2006,03,23,00,59,9.20
2006,03,23,01,00,9.30
2006,03,23,01,01,9.30
2006,03,23,01,02,9.30
2006,03,23,01,03,9.40
2006,03,23,01,04,9.40
2006,03,23,01,05,9.40
2006,03,23,01,06,9.40
2006,03,23,01,07,9.40
2006,03,23,01,08,9.50
2006,03,23,01,09,9.50
2006,03,23,01,10,9.50
2006,03,23,01,11,9.50
2006,03,23,01,12,9.50
2006,03,23,01,13,9.50
2006,03,23,01,14,9.50
2006,03,23,01,15,9.50
2006,03,23,01,16,9.50
2006,03,23,01,17,9.50
2006,03,23,01,18,9.50
2006,03,23,01,19,9.40
2006,03,23,01,20,9.40
2006,03,23,01,21,9.40
2006,03,23,01,22,9.40
2006,03,23,01,23,9.40
2006,03,23,01,24,9.40
2006,03,23,01,25,9.40
2006,03,23,01,26,9.40
2006,03,23,01,27,9.40
2006,03,23,01,28,9.40
2006,03,23,01,29,9.40
2006,03,23,01,30,9.40
2006,03,23,01,31,9.50
2006,03,23,01,32,9.50
2006,03,23,01,33,9.50
2006,03,23,01,34,9.50
2006,03,23,01,35,9.50
2006,03,23,01,36,9.50
2006,03,23,01,37,9.50
2006,03,23,01,38,9.50
2006,03,23,01,39,9.50
2006,03,23,01,40,9.50
2006,03,23,01,41,9.60
2006,03,23,01,42,9.60
2006,03,23,01,43,9.60
2006,03,23,01,44,9.60
2006,03,23,01,45,9.70
2006,03,23,01,46,9.70
2006,03,23,01,47,9.70
2006,03,23,01,48,9.70
2006,03,23,01,49,9.70
2006,03,23,01,50,9.70
2006,03,23,01,51,9.70
2006,03,23,01,52,9.60
2006,03,23,01,53,9.60
2006,03,23,01,54,9.60
2006,03,23,01,55,9.50
2006,03,23,01,56,9.50
2006,03,23,01,57,9.50
2006,03,23,01,58,9.50
2006,03,23,01,59,9.50
2006,03,23,02,00,9.50
2006,03,23,02,01,9.50
2006,03,23,02,02,9.50
2006,03,23,02,03,9.40
2006,03,23,02,04,9.50
2006,03,23,02,05,9.50
2006,03,23,02,06,9.50
2006,03,23,02,07,9.50
2006,03,23,02,08,9.50
2006,03,23,02,09,9.50
2006,03,23,02,10,9.50
2006,03,23,02,11,9.50
2006,03,23,02,12,9.40
2006,03,23,02,13,9.40
2006,03,23,02,14,9.40
2006,03,23,02,15,9.40
2006,03,23,02,16,9.40
2006,03,23,02,17,9.40
2006,03,23,02,18,9.40
2006,03,23,02,19,9.40
2006,03,23,02,20,9.40
2006,03,23,02,21,9.40
2006,03,23,02,22,9.40
2006,03,23,02,23,9.40
2006,03,23,02,24,9.40
2006,03,23,02,25,9.40
2006,03,23,02,26,9.40
2006,03,23,02,27,9.40
2006,03,23,02,28,9.30
2006,03,23,02,29,9.30
2006,03,23,02,30,9.30
2006,03,23,02,31,9.20
2006,03,23,02,32,9.20
2006,03,23,02,33,9.20
2006,03,23,02,34,9.10
2006,03,23,02,35,9.00
2006,03,23,02,36,9.00
2006,03,23,02,37,8.90
2006,03,23,02,38,8.90
2006,03,23,02,39,8.80
2006,03,23,02,40,8.70
2006,03,23,02,41,8.70
2006,03,23,02,42,8.70
2006,03,23,02,43,8.70
2006,03,23,02,44,8.70
2006,03,23,02,45,8.70
2006,03,23,02,46,8.70
2006,03,23,02,47,8.70
2006,03,23,02,48,8.80
2006,03,23,02,49,8.90
2006,03,23,02,50,8.90
2006,03,23,02,51,9.00
2006,03,23,02,52,9.00
2006,03,23,02,53,9.00
2006,03,23,02,54,9.00
2006,03,23,02,55,8.90
2006,03,23,02,56,8.80
2006,03,23,02,57,8.70
2006,03,23,02,58,8.70
2006,03,23,02,59,8.60
2006,03,23,03,00,8.50
2006,03,23,03,01,8.50
2006,03,23,03,02,8.50
2006,03,23,03,03,8.50
2006,03,23,03,04,8.50
2006,03,23,03,05,8.50
2006,03,23,03,06,8.50
2006,03,23,03,07,8.50
2006,03,23,03,08,8.60
2006,03,23,03,09,8.60
2006,03,23,03,10,8.60
2006,03,23,03,11,8.70
2006,03,23,03,12,8.70
2006,03,23,03,13,8.70
2006,03,23,03,14,8.70
2006,03,23,03,15,8.70
2006,03,23,03,16,8.70
2006,03,23,03,17,8.70
2006,03,23,03,18,8.70
2006,03,23,03,19,8.70
2006,03,23,03,20,8.70
2006,03,23,03,21,8.70
2006,03,23,03,22,8.70
2006,03,23,03,23,8.70
2006,03,23,03,24,8.70
2006,03,23,03,25,8.70
2006,03,23,03,26,8.70
2006,03,23,03,27,8.70
2006,03,23,03,28,8.70
2006,03,23,03,29,8.70
2006,03,23,03,30,8.70
2006,03,23,03,31,8.70
2006,03,23,03,32,8.70
2006,03,23,03,33,8.70
2006,03,23,03,34,8.70
2006,03,23,03,35,8.70
2006,03,23,03,36,8.70
2006,03,23,03,37,8.70
2006,03,23,03,38,8.80
2006,03,23,03,39,8.80
2006,03,23,03,40,8.80
2006,03,23,03,41,8.80
2006,03,23,03,42,8.90
2006,03,23,03,43,8.90
2006,03,23,03,44,8.90
2006,03,23,03,45,8.80
2006,03,23,03,46,8.80
2006,03,23,03,47,8.80
2006,03,23,03,48,8.80
2006,03,23,03,49,8.80
2006,03,23,03,50,8.80
2006,03,23,03,51,8.80
2006,03,23,03,52,8.80
2006,03,23,03,53,8.80
2006,03,23,03,54,8.80
2006,03,23,03,55,8.80
2006,03,23,03,56,8.80
2006,03,23,03,57,8.70
2006,03,23,03,58,8.70
2006,03,23,03,59,8.70
2006,03,23,04,00,8.70
2006,03,23,04,01,8.70
2006,03,23,04,02,8.70
2006,03,23,04,03,8.70
2006,03,23,04,04,8.70
2006,03,23,04,05,8.70
2006,03,23,04,06,8.70
2006,03,23,04,07,8.70
2006,03,23,04,08,8.70
2006,03,23,04,09,8.70
2006,03,23,04,10,8.70
2006,03,23,04,11,8.70
2006,03,23,04,12,8.70
2006,03,23,04,13,8.70
2006,03,23,04,14,8.70
2006,03,23,04,15,8.70
2006,03,23,04,16,8.70
2006,03,23,04,17,8.70
2006,03,23,04,18,8.70
2006,03,23,04,19,8.70
2006,03,23,04,20,8.70
2006,03,23,04,21,8.70
2006,03,23,04,22,8.70
2006,03,23,04,23,8.70
2006,03,23,04,24,8.70
2006,03,23,04,25,8.70
2006,03,23,04,26,8.70
2006,03,23,04,27,8.70
2006,03,23,04,28,8.70
2006,03,23,04,29,8.70
2006,03,23,04,30,8.80
2006,03,23,04,31,8.80
2006,03,23,04,32,8.80
2006,03,23,04,33,8.80
2006,03,23,04,34,8.80
2006,03,23,04,35,8.90
2006,03,23,04,36,8.90
2006,03,23,04,37,9.00
2006,03,23,04,38,9.00
2006,03,23,04,39,9.00
2006,03,23,04,40,9.00
2006,03,23,04,41,9.00
2006,03,23,04,42,9.10
2006,03,23,04,43,9.10
2006,03,23,04,44,9.10
2006,03,23,04,45,9.10
2006,03,23,04,46,9.20
2006,03,23,04,47,9.20
2006,03,23,04,48,9.20
2006,03,23,04,49,9.20
2006,03,23,04,50,9.20
2006,03,23,04,51,9.20
2006,03,23,04,52,9.20
2006,03,23,04,53,9.20
2006,03,23,04,54,9.20
2006,03,23,04,55,9.20
2006,03,23,04,56,9.20
2006,03,23,04,57,9.20
2006,03,23,04,58,9.20
2006,03,23,04,59,9.20
2006,03,23,05,00,9.20
2006,03,23,05,01,9.20
2006,03,23,05,02,9.20
2006,03,23,05,03,9.20
2006,03,23,05,04,9.20
2006,03,23,05,05,9.20
2006,03,23,05,06,9.20
2006,03,23,05,07,9.20
2006,03,23,05,08,9.20
2006,03,23,05,09,9.20
2006,03,23,05,10,9.20
2006,03,23,05,11,9.20
2006,03,23,05,12,9.20
2006,03,23,05,13,9.20
2006,03,23,05,14,9.20
2006,03,23,05,15,9.20
2006,03,23,05,16,9.20
2006,03,23,05,17,9.20
2006,03,23,05,18,9.20
2006,03,23,05,19,9.20
2006,03,23,05,20,9.10
2006,03,23,05,21,9.10
2006,03,23,05,22,9.20
2006,03,23,05,23,9.20
2006,03,23,05,24,9.10
2006,03,23,05,25,9.10
2006,03,23,05,26,9.10
2006,03,23,05,27,9.10
2006,03,23,05,28,9.10
2006,03,23,05,29,9.10
2006,03,23,05,30,9.10
2006,03,23,05,31,9.10
2006,03,23,05,32,9.10
2006,03,23,05,33,9.10
2006,03,23,05,34,9.20
2006,03,23,05,35,9.20
2006,03,23,05,36,9.20
2006,03,23,05,37,9.30
2006,03,23,05,38,9.30
2006,03,23,05,39,9.30
2006,03,23,05,40,9.40
2006,03,23,05,41,9.40
2006,03,23,05,42,9.40
2006,03,23,05,43,9.50
2006,03,23,05,44,9.50
2006,03,23,05,45,9.50
2006,03,23,05,46,9.50
2006,03,23,05,47,9.50
2006,03,23,05,48,9.50
2006,03,23,05,49,9.50
2006,03,23,05,50,9.50
2006,03,23,05,51,9.50
2006,03,23,05,52,9.50
2006,03,23,05,53,9.50
2006,03,23,05,54,9.50
2006,03,23,05,55,9.50
2006,03,23,05,56,9.50
2006,03,23,05,57,9.50
2006,03,23,05,58,9.50
2006,03,23,05,59,9.50
2006,03,23,06,00,9.50
2006,03,23,06,01,9.50
2006,03,23,06,02,9.50
2006,03,23,06,03,9.50
2006,03,23,06,04,9.50
2006,03,23,06,05,9.50
2006,03,23,06,06,9.50
2006,03,23,06,07,9.50
2006,03,23,06,08,9.50
2006,03,23,06,09,9.50
2006,03,23,06,10,9.50
2006,03,23,06,11,9.60
2006,03,23,06,12,9.60
2006,03,23,06,13,9.60
2006,03,23,06,14,9.60
2006,03,23,06,15,9.60
2006,03,23,06,16,9.70
2006,03,23,06,17,9.70
2006,03,23,06,18,9.70
2006,03,23,06,19,9.70
2006,03,23,06,20,9.80
2006,03,23,06,21,9.90
2006,03,23,06,22,9.90
2006,03,23,06,23,9.90
2006,03,23,06,24,10.00
2006,03,23,06,25,10.10
2006,03,23,06,26,10.10
2006,03,23,06,27,10.10
2006,03,23,06,28,10.20
2006,03,23,06,29,10.30
2006,03,23,06,30,10.40
2006,03,23,06,31,10.40
2006,03,23,06,32,10.40
2006,03,23,06,33,10.50
2006,03,23,06,34,10.60
2006,03,23,06,35,10.60
2006,03,23,06,36,10.60
2006,03,23,06,37,10.60
2006,03,23,06,38,10.60
2006,03,23,06,39,10.60
2006,03,23,06,40,10.60
2006,03,23,06,41,10.60
2006,03,23,06,42,10.60
2006,03,23,06,43,10.60
2006,03,23,06,44,10.50
2006,03,23,06,45,10.40
2006,03,23,06,46,10.40
2006,03,23,06,47,10.40
2006,03,23,06,48,10.40
2006,03,23,06,49,10.40
2006,03,23,06,50,10.40
2006,03,23,06,51,10.40
2006,03,23,06,52,10.40
2006,03,23,06,53,10.40
2006,03,23,06,54,10.40
2006,03,23,06,55,10.40
2006,03,23,06,56,10.40
2006,03,23,06,57,10.30
2006,03,23,06,58,10.30
2006,03,23,06,59,10.30
2006,03,23,07,00,10.20
2006,03,23,07,01,10.20
2006,03,23,07,02,10.20
2006,03,23,07,03,10.20
2006,03,23,07,04,10.10
2006,03,23,07,05,10.10
2006,03,23,07,06,10.10
2006,03,23,07,07,10.10
2006,03,23,07,08,10.10
2006,03,23,07,09,10.10
2006,03,23,07,10,10.10
2006,03,23,07,11,10.10
2006,03,23,07,12,10.20
2006,03,23,07,13,10.20
2006,03,23,07,14,10.20
2006,03,23,07,15,10.30
2006,03,23,07,16,10.30
2006,03,23,07,17,10.30
2006,03,23,07,18,10.30
2006,03,23,07,19,10.30
2006,03,23,07,20,10.40
2006,03,23,07,21,10.40
2006,03,23,07,22,10.40
2006,03,23,07,23,10.60
2006,03,23,07,24,10.60
2006,03,23,07,25,10.70
2006,03,23,07,26,10.70
2006,03,23,07,27,10.70
2006,03,23,07,28,10.80
2006,03,23,07,29,10.80
2006,03,23,07,30,10.70
2006,03,23,07,31,10.60
2006,03,23,07,32,10.60
2006,03,23,07,33,10.50
2006,03,23,07,34,10.40
2006,03,23,07,35,10.40
2006,03,23,07,36,10.40
2006,03,23,07,37,10.40
2006,03,23,07,38,10.30
2006,03,23,07,39,10.20
2006,03,23,07,40,10.20
2006,03,23,07,41,10.10
2006,03,23,07,42,10.10
2006,03,23,07,43,10.10
2006,03,23,07,44,10.00
2006,03,23,07,45,9.90
2006,03,23,07,46,9.90
2006,03,23,07,47,9.90
2006,03,23,07,48,10.00
2006,03,23,07,49,10.10
2006,03,23,07,50,10.20
2006,03,23,07,51,10.30
2006,03,23,07,52,10.50
2006,03,23,07,53,10.60
2006,03,23,07,54,10.70
2006,03,23,07,55,10.80
2006,03,23,07,56,10.90
2006,03,23,07,57,10.90
2006,03,23,07,58,10.90
2006,03,23,07,59,11.00
2006,03,23,08,00,11.10
2006,03,23,08,01,11.10
2006,03,23,08,02,11.10
2006,03,23,08,03,11.20
2006,03,23,08,04,11.20
2006,03,23,08,05,11.30
2006,03,23,08,06,11.30
2006,03,23,08,07,11.40
2006,03,23,08,08,11.40
2006,03,23,08,09,11.40
2006,03,23,08,10,11.50
2006,03,23,08,11,11.60
2006,03,23,08,12,11.60
2006,03,23,08,13,11.60
2006,03,23,08,14,11.60
2006,03,23,08,15,11.70
2006,03,23,08,16,11.70
2006,03,23,08,17,11.70
2006,03,23,08,18,11.70
2006,03,23,08,19,11.70
2006,03,23,08,20,11.70
2006,03,23,08,21,11.70
2006,03,23,08,22,11.60
2006,03,23,08,23,11.60
2006,03,23,08,24,11.60
2006,03,23,08,25,11.60
2006,03,23,08,26,11.70
2006,03,23,08,27,11.70
2006,03,23,08,28,11.70
2006,03,23,08,29,11.80
2006,03,23,08,30,11.80
2006,03,23,08,31,11.80
2006,03,23,08,32,11.80
2006,03,23,08,33,11.70
2006,03,23,08,34,11.70
2006,03,23,08,35,11.70
2006,03,23,08,36,11.70
2006,03,23,08,37,11.70
2006,03,23,08,38,11.60
2006,03,23,08,39,11.60
2006,03,23,08,40,11.60
2006,03,23,08,41,11.50
2006,03,23,08,42,11.40
2006,03,23,08,43,11.30
2006,03,23,08,44,11.30
2006,03,23,08,46,11.20
2006,03,23,08,47,11.20
2006,03,23,08,48,11.20
2006,03,23,08,49,11.10
2006,03,23,08,50,10.80
2006,03,23,08,51,10.70
2006,03,23,08,52,10.60
2006,03,23,08,53,10.50
2006,03,23,08,54,10.30
2006,03,23,08,55,10.30
2006,03,23,08,56,10.20
2006,03,23,08,57,10.20
2006,03,23,08,58,10.30
2006,03,23,08,59,10.30
2006,03,23,09,00,10.40
2006,03,23,09,02,10.40
2006,03,23,09,03,10.30
2006,03,23,09,04,10.20
2006,03,23,09,06,10.20
2006,03,23,09,07,10.10
2006,03,23,09,08,10.10
2006,03,23,09,09,10.10
2006,03,23,09,10,10.10
2006,03,23,09,11,10.10
2006,03,23,09,12,10.10
2006,03,23,09,13,10.10
2006,03,23,09,14,10.20
2006,03,23,09,15,10.20
2006,03,23,09,16,10.20
2006,03,23,09,17,10.20
2006,03,23,09,18,10.10
2006,03,23,09,19,10.10
2006,03,23,09,21,10.10
2006,03,23,09,22,10.10
2006,03,23,09,23,10.10
2006,03,23,09,24,10.10
2006,03,23,09,25,10.10
2006,03,23,09,26,10.10
2006,03,23,09,27,10.10
2006,03,23,09,28,10.10
2006,03,23,09,29,10.10
2006,03,23,09,30,10.00
2006,03,23,09,31,9.90
2006,03,23,09,32,9.90
2006,03,23,09,33,9.90
2006,03,23,09,34,9.90
2006,03,23,09,35,9.90
2006,03,23,09,36,9.90
2006,03,23,09,37,9.90
2006,03,23,09,38,9.90
2006,03,23,09,39,9.90
2006,03,23,09,40,9.90
2006,03,23,09,41,9.90
2006,03,23,09,42,9.90
2006,03,23,09,43,9.90
2006,03,23,09,44,9.90
2006,03,23,09,45,9.90
2006,03,23,09,46,9.90
2006,03,23,09,47,9.90
2006,03,23,09,48,9.90
2006,03,23,09,49,9.90
2006,03,23,09,50,9.90
2006,03,23,09,51,9.90
2006,03,23,09,52,10.00
2006,03,23,09,53,10.10
2006,03,23,09,54,10.10
2006,03,23,09,55,10.10
2006,03,23,09,56,10.10
2006,03,23,09,57,10.10
2006,03,23,09,58,10.20
2006,03,23,10,00,10.20
2006,03,23,10,01,10.30
2006,03,23,10,02,10.30
2006,03,23,10,03,10.30
2006,03,23,10,04,10.30
2006,03,23,10,05,10.30
2006,03,23,10,06,10.30
2006,03,23,10,07,10.40
2006,03,23,10,08,10.40
2006,03,23,10,12,10.20
2006,03,23,10,13,10.20
2006,03,23,10,14,10.30
2006,03,23,10,15,10.30
2006,03,23,10,16,10.30
2006,03,23,10,17,10.30
2006,03,23,10,18,10.30
2006,03,23,10,19,10.30
2006,03,23,10,20,10.30
2006,03,23,10,21,10.30
2006,03,23,10,22,10.20
2006,03,23,10,23,10.20
2006,03,23,10,24,10.20
2006,03,23,10,25,10.20
2006,03,23,10,29,10.30
2006,03,23,10,30,10.40
2006,03,23,10,31,10.40
2006,03,23,10,32,10.50
2006,03,23,10,33,10.60
2006,03,23,10,34,10.60
2006,03,23,10,35,10.60
2006,03,23,10,36,10.60
2006,03,23,10,37,10.70
2006,03,23,10,38,10.70
2006,03,23,10,39,10.70
2006,03,23,10,43,10.90
2006,03,23,10,44,11.10
2006,03,23,10,45,11.10
2006,03,23,10,50,11.50
2006,03,23,10,51,11.60
2006,03,23,10,52,11.60
2006,03,23,10,53,11.70
2006,03,23,10,54,11.70
2006,03,23,10,55,11.80
2006,03,23,10,56,11.80
2006,03,23,10,57,11.90
2006,03,23,10,58,11.90
2006,03,23,10,59,12.00
2006,03,23,11,00,12.00
2006,03,23,11,01,12.00
2006,03,23,11,02,12.10
2006,03,23,11,03,12.20
2006,03,23,11,04,12.20
2006,03,23,11,05,12.30
2006,03,23,11,06,12.30
2006,03,23,11,07,12.30
2006,03,23,11,08,12.30
2006,03,23,11,09,12.30
2006,03,23,11,10,12.30
2006,03,23,11,11,12.30
2006,03,23,11,12,12.30
2006,03,23,11,13,12.30
2006,03,23,11,14,12.30
2006,03,23,11,15,12.30
2006,03,23,11,16,12.30
2006,03,23,11,17,12.30
2006,03,23,11,18,12.30
2006,03,23,11,19,12.30
2006,03,23,11,20,12.20
2006,03,23,11,29,12.10
2006,03,23,11,30,12.10
2006,03,23,11,31,12.10
2006,03,23,11,32,12.20
2006,03,23,11,33,12.30
2006,03,23,11,34,12.30
2006,03,23,11,35,12.30
2006,03,23,11,36,12.30
2006,03,23,11,37,12.30
2006,03,23,11,38,12.40
2006,03,23,11,39,12.50
2006,03,23,11,40,12.60
2006,03,23,11,41,12.70
2006,03,23,11,42,12.80
2006,03,23,11,43,12.90
2006,03,23,11,44,12.90
2006,03,23,11,45,13.00
2006,03,23,11,46,13.10
2006,03,23,11,47,13.10
2006,03,23,11,48,13.20
2006,03,23,11,49,13.20
2006,03,23,11,50,13.20
2006,03,23,11,51,13.20
2006,03,23,11,52,13.20
2006,03,23,11,53,13.20
2006,03,23,11,54,13.30
2006,03,23,11,55,13.30
2006,03,23,11,56,13.30
2006,03,23,11,57,13.30
2006,03,23,11,58,13.30
2006,03,23,11,59,13.30
2006,03,23,12,00,13.30
2006,03,23,12,01,13.30
2006,03,23,12,02,13.40
2006,03,23,12,03,13.50
2006,03,23,12,04,13.40
2006,03,23,12,05,13.40
2006,03,23,12,06,13.50
2006,03,23,12,07,13.50
2006,03,23,12,08,13.50
2006,03,23,12,09,13.50
2006,03,23,12,10,13.60
2006,03,23,12,11,13.60
2006,03,23,12,12,13.70
2006,03,23,12,13,13.70
2006,03,23,12,14,13.60
2006,03,23,12,15,13.60
2006,03,23,12,16,13.60
2006,03,23,12,17,13.50
2006,03,23,12,18,13.50
2006,03,23,12,19,13.40
2006,03,23,12,20,13.40
2006,03,23,12,21,13.30
2006,03,23,12,22,13.30
2006,03,23,12,23,13.40
2006,03,23,12,24,13.40
2006,03,23,12,25,13.40
2006,03,23,12,26,13.40
2006,03,23,12,27,13.40
2006,03,23,12,28,13.40
2006,03,23,12,29,13.40
2006,03,23,12,30,13.40
2006,03,23,12,31,13.40
2006,03,23,12,32,13.40
2006,03,23,12,33,13.40
2006,03,23,12,34,13.40
2006,03,23,12,35,13.50
2006,03,23,12,36,13.50
2006,03,23,12,37,13.50
2006,03,23,12,38,13.50
2006,03,23,12,39,13.50
2006,03,23,12,40,13.50
2006,03,23,12,41,13.50
2006,03,23,12,42,13.60
2006,03,23,12,43,13.60
2006,03,23,12,44,13.70
2006,03,23,12,45,13.70
2006,03,23,12,46,13.70
2006,03,23,12,47,13.70
2006,03,23,12,48,13.60
2006,03,23,12,49,13.60
2006,03,23,12,50,13.60
2006,03,23,12,51,13.70
2006,03,23,12,52,13.70
2006,03,23,12,53,13.70
2006,03,23,12,54,13.70
2006,03,23,12,55,13.70
2006,03,23,12,56,13.70
2006,03,23,12,57,13.70
2006,03,23,12,58,13.70
2006,03,23,12,59,13.70
2006,03,23,13,00,13.60
2006,03,23,13,01,13.60
2006,03,23,13,02,13.60
2006,03,23,13,03,13.60
2006,03,23,13,04,13.60
2006,03,23,13,05,13.60
2006,03,23,13,06,13.60
2006,03,23,13,07,13.50
2006,03,23,13,08,13.40
2006,03,23,13,09,13.40
2006,03,23,13,10,13.40
2006,03,23,13,11,13.40
2006,03,23,13,12,13.30
2006,03,23,13,13,13.30
2006,03,23,13,14,13.30
2006,03,23,13,15,13.30
2006,03,23,13,16,13.30
2006,03,23,13,17,13.30
2006,03,23,13,18,13.30
2006,03,23,13,19,13.30
2006,03,23,13,20,13.30
2006,03,23,13,21,13.30
2006,03,23,13,23,13.30
2006,03,23,13,24,13.30
2006,03,23,13,25,13.30
2006,03,23,13,26,13.40
2006,03,23,13,27,13.40
2006,03,23,13,28,13.50
2006,03,23,13,31,13.70
2006,03,23,13,32,13.80
2006,03,23,13,33,13.90
2006,03,23,13,34,13.90
2006,03,23,13,35,14.00
2006,03,23,13,37,14.20
2006,03,23,13,38,14.20
2006,03,23,13,39,14.20
2006,03,23,13,41,14.40
2006,03,23,13,42,14.50
2006,03,23,13,43,14.50
2006,03,23,13,44,14.60
2006,03,23,13,46,14.70
2006,03,23,13,48,14.80
2006,03,23,13,49,14.80
2006,03,23,13,50,14.80
2006,03,23,13,51,14.80
2006,03,23,13,52,14.80
2006,03,23,13,53,14.80
2006,03,23,13,56,14.70
2006,03,23,13,57,14.70
2006,03,23,13,58,14.70
2006,03,23,13,59,14.60
2006,03,23,14,00,14.60
2006,03,23,14,01,14.60
2006,03,23,14,03,14.60
2006,03,23,14,04,14.60
2006,03,23,14,05,14.70
2006,03,23,14,06,14.70
2006,03,23,14,07,14.70
2006,03,23,14,08,14.70
2006,03,23,14,09,14.70
2006,03,23,14,10,14.70
2006,03,23,14,11,14.70
2006,03,23,14,12,14.60
2006,03,23,14,13,14.60
2006,03,23,14,16,14.50
2006,03,23,14,20,14.60
2006,03,23,14,21,14.60
2006,03,23,14,22,14.60
2006,03,23,14,23,14.60
2006,03,23,14,24,14.60
2006,03,23,14,25,14.70
2006,03,23,14,26,14.70
2006,03,23,14,28,14.70
2006,03,23,14,29,14.70
2006,03,23,14,30,14.70
2006,03,23,14,31,14.70
2006,03,23,14,32,14.70
2006,03,23,14,33,14.70
2006,03,23,14,34,14.70
2006,03,23,14,35,14.70
2006,03,23,14,36,14.80
2006,03,23,14,37,14.80
2006,03,23,14,38,14.80
2006,03,23,14,39,14.80
2006,03,23,14,40,14.80
2006,03,23,14,41,14.80
2006,03,23,14,42,14.80
2006,03,23,14,43,14.90
2006,03,23,14,45,14.90
2006,03,23,14,46,14.90
2006,03,23,14,47,14.80
2006,03,23,14,48,14.80
2006,03,23,14,49,14.80
2006,03,23,14,50,14.80
2006,03,23,14,51,14.70
2006,03,23,14,52,14.60
2006,03,23,14,53,14.60
2006,03,23,14,54,14.60
2006,03,23,14,55,14.50
2006,03,23,14,57,14.50
2006,03,23,14,58,14.50
2006,03,23,14,59,14.40
2006,03,23,15,00,14.40
2006,03,23,15,01,14.30
2006,03,23,15,02,14.20
2006,03,23,15,05,14.10
2006,03,23,15,06,14.10
2006,03,23,15,07,14.10
2006,03,23,15,08,14.10
2006,03,23,15,09,14.00
2006,03,23,15,10,14.00
2006,03,23,15,11,13.90
2006,03,23,15,12,13.90
2006,03,23,15,13,13.70
2006,03,23,15,14,13.70
2006,03,23,15,15,13.60
2006,03,23,15,16,13.50
2006,03,23,15,18,13.30
2006,03,23,15,19,13.30
2006,03,23,15,20,13.20
2006,03,23,15,21,13.30
2006,03,23,15,22,13.30
2006,03,23,15,23,13.30
2006,03,23,15,24,13.50
2006,03,23,15,25,13.50
2006,03,23,15,26,13.60
2006,03,23,15,27,13.60
2006,03,23,15,28,13.70
2006,03,23,15,29,13.70
2006,03,23,15,30,13.70
2006,03,23,15,41,14.60
2006,03,23,15,42,14.70
2006,03,23,15,43,14.70
2006,03,23,15,44,14.70
2006,03,23,15,45,14.70
2006,03,23,15,46,14.60
2006,03,23,15,47,14.60
2006,03,23,15,48,14.50
2006,03,23,15,49,14.50
2006,03,23,15,50,14.50
2006,03,23,15,51,14.40
2006,03,23,15,52,14.30
2006,03,23,15,53,14.30
2006,03,23,15,54,14.20
2006,03,23,15,55,14.20
2006,03,23,15,56,14.20
2006,03,23,15,57,14.20
2006,03,23,15,58,14.20
2006,03,23,15,59,14.10
2006,03,23,16,00,14.00
2006,03,23,16,01,14.00
2006,03,23,16,02,14.00
2006,03,23,16,03,14.00
2006,03,23,16,04,14.00
2006,03,23,16,05,14.00
2006,03,23,16,06,14.10
2006,03,23,16,07,14.10
2006,03,23,16,08,14.10
2006,03,23,16,09,14.20
2006,03,23,16,10,14.20
2006,03,23,16,11,14.20
2006,03,23,16,12,14.30
2006,03,23,16,13,14.30
2006,03,23,16,14,14.40
2006,03,23,16,15,14.40
2006,03,23,16,16,14.40
2006,03,23,16,17,14.40
2006,03,23,16,18,14.50
2006,03,23,16,19,14.50
2006,03,23,16,20,14.60
2006,03,23,16,21,14.60
2006,03,23,16,22,14.60
2006,03,23,16,23,14.60
2006,03,23,16,24,14.60
2006,03,23,16,25,14.60
2006,03,23,16,26,14.60
2006,03,23,16,27,14.60
2006,03,23,16,28,14.60
2006,03,23,16,29,14.60
2006,03,23,16,30,14.70
2006,03,23,16,31,14.70
2006,03,23,16,32,14.70
2006,03,23,16,33,14.70
2006,03,23,16,34,14.70
2006,03,23,16,35,14.70
2006,03,23,16,36,14.70
2006,03,23,16,37,14.60
2006,03,23,16,38,14.60
2006,03,23,16,39,14.60
2006,03,23,16,40,14.50
2006,03,23,16,41,14.50
2006,03,23,16,42,14.50
2006,03,23,16,43,14.50
2006,03,23,16,44,14.50
2006,03,23,16,45,14.50
2006,03,23,16,46,14.50
2006,03,23,16,47,14.50
2006,03,23,16,48,14.50
2006,03,23,16,49,14.50
2006,03,23,16,50,14.50
2006,03,23,16,51,14.50
2006,03,23,16,52,14.50
2006,03,23,16,53,14.50
2006,03,23,16,54,14.50
2006,03,23,16,55,14.50
2006,03,23,16,56,14.50
2006,03,23,16,57,14.50
2006,03,23,16,58,14.60
2006,03,23,16,59,14.60
2006,03,23,17,00,14.60
2006,03,23,17,01,14.60
2006,03,23,17,02,14.60
2006,03,23,17,03,14.60
2006,03,23,17,04,14.60
2006,03,23,17,05,14.60
2006,03,23,17,06,14.50
2006,03,23,17,07,14.40
2006,03,23,17,08,14.30
2006,03,23,17,09,14.20
2006,03,23,17,10,14.20
2006,03,23,17,11,14.10
2006,03,23,17,12,14.10
2006,03,23,17,13,14.10
2006,03,23,17,14,14.00
2006,03,23,17,15,13.90
2006,03,23,17,16,13.90
2006,03,23,17,17,13.90
2006,03,23,17,18,13.80
2006,03,23,17,19,13.80
2006,03,23,17,20,13.80
2006,03,23,17,21,13.80
2006,03,23,17,22,13.70
2006,03,23,17,23,13.70
2006,03,23,17,24,13.70
2006,03,23,17,25,13.70
2006,03,23,17,26,13.70
2006,03,23,17,27,13.70
2006,03,23,17,28,13.70
2006,03,23,17,29,13.70
2006,03,23,17,30,13.70
2006,03,23,17,31,13.70
2006,03,23,17,32,13.60
2006,03,23,17,33,13.60
2006,03,23,17,34,13.60
2006,03,23,17,35,13.50
2006,03,23,17,36,13.40
2006,03,23,17,37,13.40
2006,03,23,17,38,13.40
2006,03,23,17,39,13.30
2006,03,23,17,40,13.30
2006,03,23,17,41,13.20
2006,03,23,17,42,13.10
2006,03,23,17,43,13.10
2006,03,23,17,44,13.10
2006,03,23,17,45,13.00
2006,03,23,17,46,13.00
2006,03,23,17,47,13.00
2006,03,23,17,48,13.00
2006,03,23,17,49,13.00
2006,03,23,17,50,13.00
2006,03,23,17,51,12.90
2006,03,23,17,52,12.90
2006,03,23,17,53,12.80
2006,03,23,17,54,12.80
2006,03,23,17,55,12.90
2006,03,23,17,56,12.90
2006,03,23,17,57,13.00
2006,03,23,17,58,13.10
2006,03,23,17,59,13.10
2006,03,23,18,00,13.10
2006,03,23,18,01,13.10
2006,03,23,18,02,13.20
2006,03,23,18,03,13.20
2006,03,23,18,04,13.20
2006,03,23,18,05,13.20
2006,03,23,18,06,13.20
2006,03,23,18,07,13.20
2006,03,23,18,08,13.20
2006,03,23,18,09,13.10
2006,03,23,18,10,13.10
2006,03,23,18,11,13.10
2006,03,23,18,12,13.10
2006,03,23,18,13,13.00
2006,03,23,18,14,13.00
2006,03,23,18,15,13.00
2006,03,23,18,16,13.00
2006,03,23,18,17,13.00
2006,03,23,18,18,13.00
2006,03,23,18,19,12.90
2006,03,23,18,20,12.90
2006,03,23,18,21,13.00
2006,03,23,18,22,13.10
2006,03,23,18,23,13.20
2006,03,23,18,24,13.40
2006,03,23,18,25,13.50
2006,03,23,18,26,13.60
2006,03,23,18,27,13.60
2006,03,23,18,28,13.60
2006,03,23,18,29,13.60
2006,03,23,18,30,13.60
2006,03,23,18,31,13.50
2006,03,23,18,32,13.50
2006,03,23,18,33,13.40
2006,03,23,18,34,13.40